#timestamp,LO_Frequency,Hit,StdDev 
1574204415.1,286046997.4,N
1574204435.8,286046996.6,N
1574204455.7,286046997.2,N
1574204475.5,286046999.0,N
1574204495.3,286047000.2,N
1574204515.2,286046996.9,N
1574204535.0,286046995.2,N
1574204535.9,286046995.2,N
1574204555.8,286046994.9,N
1574204575.6,286046998.0,N
1574204595.4,286047000.9,N
1574204615.3,286047001.2,N
1574204635.1,286046998.4,N
1574204655.8,286047006.4,N
1574204675.7,286047004.0,N
1574204695.5,286047000.2,N
1574204715.4,286047000.8,N
1574204735.2,286046999.4,N
1574204755.0,286047001.6,N
1574204755.9,286047001.6,N
1574204775.8,286047006.3,N
1574204795.6,286047009.9,N
1574204815.5,286047004.7,N
1574204835.3,286047005.7,N
1574204855.1,286047010.6,N
1574204875.9,286047012.1,N
1574204895.7,286047011.8,N
1574204915.5,286047013.4,N
1574204935.4,286047008.9,N
1574204955.2,286047008.1,N
1574204975.1,286047004.8,N
1574204976.0,286047004.8,N
1574204995.8,286047011.8,N
1574205015.6,286047008.4,N
1574205035.5,286047012.3,N
1574205055.3,286047009.2,N
1574205075.1,286047005.4,N
1574205095.9,286047001.9,N
1574205115.7,286047004.9,N
1574205135.6,286047009.1,N
1574205155.4,286047012.4,N
1574205175.2,286047012.0,N
1574205195.1,286047012.8,N
1574205196.0,286047012.8,Y
1574205215.8,286047002.3,P
1574205235.6,286047004.4,N
1574205255.5,286047003.5,N
1574205275.3,286047002.1,N
1574205295.2,286046995.2,N
1574205315.9,286047000.3,N
1574205335.7,286047001.7,N
1574205355.6,286047006.9,N
1574205375.4,286047003.4,N
1574205395.2,286047008.2,N
1574205415.1,286047006.4,N
1574205416.0,286047006.4,N
1574205435.8,286047003.5,N
1574205455.7,286046998.9,N
1574205475.5,286047003.9,N
1574205495.3,286047006.7,N
1574205515.2,286047012.2,Y
1574205535.0,286046998.9,P
1574205535.9,286046998.9,N
1574205555.7,286047000.6,N
1574205575.6,286046999.3,N
1574205595.4,286047002.9,N
1574205615.3,286047006.4,Y
1574205635.1,286047006.5,P
1574205655.8,286047009.0,P
1574205675.7,286047009.1,N
1574205695.5,286047007.7,N
1574205715.4,286047011.5,Y
1574205735.2,286047010.6,P
1574205755.0,286047010.6,P
1574205755.9,286047010.6,P
1574205775.8,286047007.0,Y
1574205795.6,286046992.8,P
1574205815.4,286046991.2,N
1574205835.3,286046987.3,N
1574205855.1,286046988.9,N
1574205875.9,286046993.7,N
1574205895.7,286046991.2,N
1574205915.5,286046988.1,N
1574205935.4,286046985.9,N
1574205955.2,286046985.0,N
1574205975.0,286046972.2,Y
1574205975.9,286046972.2,P
1574205995.8,286046994.3,N
1574206015.6,286046995.0,N
1574206035.5,286046996.3,N
1574206055.3,286046997.1,N
1574206075.1,286046995.3,N
1574206095.9,286047001.5,N
1574206115.7,286046999.3,N
1574206135.5,286047002.7,N
1574206155.4,286046999.5,N
1574206175.2,286047001.9,N
1574206195.1,286047000.5,N
1574206196.0,286047000.5,N
1574206215.8,286046998.8,N
1574206235.6,286046994.2,N
1574206255.5,286046994.7,N
1574206275.3,286046994.8,N
1574206295.1,286046994.8,N
1574206315.9,286046994.0,N
1574206335.7,286046996.3,N
1574206355.6,286046996.7,N
1574206375.4,286046998.5,N
1574206395.2,286046997.2,N
1574206415.1,286047001.2,N
1574206416.0,286047001.2,N
1574206435.8,286047002.2,N
1574206455.6,286047006.2,N
1574206475.5,286047006.3,N
1574206495.3,286047007.4,N
1574206515.2,286047008.3,N
1574206535.9,286047005.2,N
1574206555.7,286047005.0,N
1574206575.6,286047009.0,N
1574206595.4,286046999.8,N
1574206615.2,286046998.5,N
1574206635.1,286046998.5,N
1574206636.0,286046998.5,N
1574206655.8,286046998.6,N
1574206675.7,286046996.7,N
1574206695.5,286047000.5,N
1574206715.3,286047002.0,N
1574206735.2,286046999.7,N
1574206755.0,286046997.4,N
1574206755.9,286046997.4,N
1574206775.8,286047000.6,N
1574206795.6,286047004.7,N
1574206815.4,286047003.0,N
1574206835.3,286047008.4,N
1574206855.1,286047006.6,N
1574206875.9,286047003.0,N
1574206895.7,286047004.2,N
1574206915.5,286047001.6,N
1574206935.4,286047004.9,N
1574206955.2,286047002.9,N
1574206975.0,286047003.2,N
1574206975.9,286047003.2,N
1574206995.8,286047009.0,N
1574207015.6,286047012.1,Y
1574207035.5,286047006.1,P
1574207055.3,286047004.4,N
1574207075.1,286046998.4,N
1574207095.9,286046999.8,N
1574207115.7,286047005.9,N
1574207135.5,286047000.9,N
1574207155.4,286046998.9,N
1574207175.2,286047002.8,N
1574207195.1,286047000.3,N
1574207196.0,286047000.3,N
1574207215.8,286046998.1,N
1574207235.6,286046996.3,N
1574207255.5,286046991.3,N
1574207275.3,286046988.6,Y
1574207295.2,286046992.5,P
1574207315.9,286046995.9,N
1574207335.7,286047001.6,N
1574207355.6,286047002.5,N
1574207375.4,286047000.2,N
1574207395.2,286047002.0,N
1574207415.1,286047005.8,N
1574207416.0,286047005.8,N
1574207435.8,286047007.7,N
1574207455.7,286047021.6,Y
1574207475.5,286047016.3,P
1574207495.3,286047010.0,N
1574207515.2,286047007.5,N
1574207535.0,286047003.5,N
1574207535.9,286047003.5,N
1574207555.7,286046996.9,N
1574207575.6,286047000.3,N
1574207595.4,286047007.8,N
1574207615.3,286047006.6,N
1574207635.1,286047007.8,N
1574207636.0,286047007.8,N
1574207655.8,286047003.9,N
1574207675.7,286047009.1,N
1574207695.5,286047006.1,N
1574207715.4,286047005.5,N
1574207735.2,286047006.9,N
1574207755.0,286047009.1,N
1574207755.9,286047009.1,N
1574207775.8,286047003.8,N
1574207795.6,286047004.3,N
1574207815.4,286047008.7,N
1574207835.3,286047006.7,N
1574207855.1,286047000.6,N
1574207875.9,286046999.9,N
1574207895.7,286047010.4,N
1574207915.5,286047007.7,N
1574207935.4,286047006.7,N
1574207955.2,286047005.2,N
1574207975.0,286047004.0,N
1574207975.9,286047004.0,N
1574207995.8,286047007.1,N
